Location: Al Mulaqqa?ah
(24.1833°N, 32.8833°E)
Time: 19:24:20
(UTC+00:00)

H-2A R/B - Visible Passes

Search period start: 16 January 2022 00:00
Search period end: 26 January 2022 00:00
Orbit: 528 x 649 km, 98.3° (Epoch: 16 January)

Date Brightness Start Highest point End Pass type
(mag) Time Alt. Az. Time Alt. Az. Time Alt. Az.
16 Jan 3.8 16:20:26 10° ESE 16:26:39 12° NNE 16:27:13 10° NNE visible
16 Jan 4.9 17:55:35 10° SSW 17:59:01 22° W 18:00:18 20° WNW visible
17 Jan 3.5 16:27:43 10° SE 16:31:25 26° ENE 16:35:09 10° NNE visible
17 Jan 5.2 18:03:41 10° SW 18:06:42 18° W 18:09:46 10° NW visible
18 Jan 3.3 16:35:05 10° SE 16:39:02 32° ENE 16:43:02 10° N visible
18 Jan 5.5 18:11:58 10° SW 18:14:25 15° W 18:16:53 10° WNW visible
19 Jan 3.0 16:42:30 10° SE 16:46:39 40° ENE 16:50:52 10° N visible
19 Jan 5.7 18:20:34 10° WSW 18:22:06 12° W 18:23:39 10° WNW visible
20 Jan 2.7 16:49:58 10° SSE 16:54:17 50° ENE 16:58:38 10° N visible
21 Jan 2.5 16:57:31 10° SSE 17:01:55 63° ENE 17:06:22 10° N visible
22 Jan 2.5 17:05:06 10° SSE 17:09:34 79° ENE 17:14:03 10° N visible
23 Jan 2.6 17:12:44 10° S 17:17:12 83° W 17:21:42 10° NNW visible
24 Jan 2.9 17:20:25 10° S 17:24:51 66° WSW 17:29:18 10° NNW visible
25 Jan 3.3 17:28:08 10° S 17:32:30 52° W 17:36:52 10° NNW visible
